Location: Caltech
(34.1382°N, 118.1253°W)
Time: 13:38:02
(UTC-07:00)

Cosmos 2219 Rocket - Visible Passes

Search period start: 25 October 2014 00:00
Search period end: 03 November 2014 23:00
Orbit: 827 x 848 km, 71.0° (Epoch: 25 October)

Date Brightness Start Highest point End Pass type
(mag) Time Alt. Az. Time Alt. Az. Time Alt. Az.
25 Oct 2.5 04:52:08 31° N 04:54:51 65° ENE 05:00:28 10° SSE visible
25 Oct 3.8 06:35:30 10° WNW 06:38:08 13° W 06:40:46 10° SW visible
25 Oct 3.9 19:36:20 10° SW 19:41:20 33° WNW 19:46:23 10° N visible
26 Oct 2.6 04:38:18 59° NE 04:38:36 60° ENE 04:44:10 10° SSE visible
26 Oct 3.7 06:20:10 13° WNW 06:21:56 15° W 06:24:58 10° SW visible
26 Oct 3.7 19:19:57 10° SW 19:25:03 35° WNW 19:30:12 10° N visible
27 Oct 3.4 04:24:21 37° ESE 04:24:21 37° ESE 04:27:51 10° SE visible
27 Oct 3.7 06:06:12 16° WSW 06:06:12 16° WSW 06:09:06 10° SW visible
27 Oct 3.6 19:03:35 10° SW 19:08:46 38° WNW 19:14:01 10° N visible
28 Oct 4.4 04:10:16 17° SE 04:10:16 17° SE 04:11:32 10° SE visible
28 Oct 4.0 05:52:07 13° SW 05:52:07 13° SW 05:53:10 10° SW visible
28 Oct 3.5 18:47:13 10° SW 18:52:29 41° WNW 18:57:49 10° N visible
29 Oct 3.4 18:30:52 10° SW 18:36:12 45° WNW 18:41:37 10° N visible
